Theta_e
340 343 342 344 344 343 342 342 342 341 340 339 336 332 332 332 333 332 331 332 331 330 329 333 332 333 332 331 332 334 336 336 333 331 329 329 329 333 333 331 328 336 333
339 343 343 343 343 343 342 340 341 341 340 339 335 331 330 330 330 330 330 329 328 327 327 327 331 332 330 331 332 333 334 335 331 329 327 327 327 334 335 336 330 329 333
338 343 342 342 341 342 340 338 338 339 339 334 331 330 330 329 329 328 328 327 327 327 327 328 328 328 331 332 332 332 333 333 329 327 326 327 329 332 333 333 336 333 330
334 343 336 334 336 340 338 332 331 331 332 330 327 327 327 328 327 328 328 329 329 329 329 329 329 330 332 331 331 331 333 334 333 330 327 327 332 333 331 330 330 335 335
331 334 331 330 332 335 334 329 328 328 328 328 330 335 336 336 336 336 335 333 330 331 337 336 334 334 334 334 333 333 333 334 334 334 334 335 336 339 335 329 329 333 336
331 330 329 329 329 330 330 328 328 329 329 331 333 335 336 335 334 334 334 335 333 335 335 333 333 337 335 334 332 332 333 335 335 335 333 335 335 336 340 330 329 331 334
332 330 330 329 329 329 329 329 329 330 333 335 336 339 339 338 335 334 334 333 333 334 334 334 333 341 337 333 334 336 335 335 337 336 332 333 334 336 339 331 330 329 331
333 332 331 330 329 329 329 330 331 332 333 333 334 338 339 336 335 334 334 334 334 333 333 334 334 338 339 332 336 336 335 335 336 336 333 332 333 334 335 331 328 328 330
333 332 332 332 332 331 330 330 330 331 332 332 337 338 337 334 333 333 333 334 333 333 334 335 334 336 341 331 336 339 341 342 342 339 339 338 337 335 335 334 331 327 332
339 340 335 336 337 336 335 334 333 333 335 337 337 336 334 333 332 333 336 333 333 333 334 336 337 336 335 330 333 338 337 339 341 343 343 338 337 336 337 338 337 333 329
340 339 339 337 337 337 337 337 337 337 337 336 335 333 331 332 334 334 334 332 333 335 334 332 330 331 333 333 334 337 337 337 339 339 340 342 341 336 337 337 340 338 334
338 337 336 336 336 336 336 335 334 334 334 333 332 331 332 333 333 333 332 332 330 329 329 335 340 343 344 342 342 341 339 337 336 338 340 342 342 343 341 340 339 341 337
335 334 333 334 334 334 333 333 334 334 334 335 333 334 333 333 334 334 335 334 333 335 337 341 343 343 344 345 343 343 342 340 337 341 342 342 342 343 343 341 337 340 338
340 336 331 332 332 332 333 334 335 336 337 335 333 333 333 337 340 343 344 341 338 337 341 343 343 345 344 345 342 344 342 338 341 340 341 343 344 344 343 340 335 337 337
346 344 336 332 332 332 333 335 336 337 343 336 333 331 337 343 346 345 344 346 346 344 339 339 343 345 347 345 345 345 343 343 344 344 344 344 342 343 342 341 333 333 336
347 347 345 338 340 337 335 334 341 341 341 340 336 332 336 339 346 343 345 345 343 343 344 344 344 345 346 345 344 344 344 344 343 344 345 345 345 343 342 340 337 335 332
346 347 345 344 346 345 342 339 345 342 344 346 346 346 345 343 343 345 344 345 344 344 346 345 344 344 344 345 346 345 344 344 344 344 345 346 346 344 343 345 338 335 335
345 345 345 346 347 348 346 344 344 345 343 345 346 346 347 348 347 341 345 345 345 347 346 346 345 345 344 344 344 344 346 345 344 345 346 345 345 345 345 345 344 341 336
344 344 344 345 346 347 348 346 345 345 345 344 344 346 347 348 348 347 343 345 345 347 347 347 347 347 345 344 345 346 346 344 346 346 345 344 345 346 345 345 345 345 340
343 344 344 344 345 346 348 348 347 346 347 346 345 345 346 346 346 345 347 345 345 347 347 346 346 346 347 344 346 346 346 346 346 345 346 345 345 344 343 346 345 346 345
344 343 343 344 344 344 345 348 348 346 346 346 347 346 346 346 346 346 344 345 346 345 344 345 346 346 344 346 347 347 347 347 348 346 345 345 344 344 343 342 344 344 345
344 344 343 344 344 344 343 344 344 343 341 337 337 339 342 345 345 345 345 344 343 343 344 345 346 346 346 342 343 346 347 347 345 345 342 344 344 344 343 343 343 343 343
343 343 343 344 344 344 344 344 344 344 344 342 341 337 334 334 334 338 342 345 342 343 344 345 344 346 347 345 343 341 346 346 346 345 344 341 340 342 343 344 344 343 343
343 343 343 343 343 344 344 344 344 344 342 340 340 342 342 341 339 337 336 338 340 344 344 344 345 345 345 345 345 346 345 342 343 343 343 345 344 343 342 343 343 342 342
343 343 342 343 343 343 344 345 344 344 345 342 342 343 344 344 344 347 347 347 346 346 346 347 348 348 348 348 346 345 345 345 346 345 344 341 341 341 343 342 343 343 340
343 343 343 343 343 343 343 344 345 346 346 346 344 344 344 345 345 346 347 350 351 352 352 347 348 351 350 349 348 346 345 346 346 346 346 346 344 343 341 340 340 341 341
Wind_Speed
24 23 23 25 23 23 23 22 22 22 21 21 20 21 21 18 16 14 13 13 15 14 15 15 16 19 21 17 14 11 9 6 6 8 10 8 8 10 12 13 14 14 14
28 25 26 26 24 23 23 22 22 21 21 20 19 19 18 15 14 12 10 10 9 10 10 11 12 14 16 16 14 14 13 10 8 8 6 7 9 9 10 11 12 12 12
28 26 27 26 26 23 23 22 22 22 21 20 19 17 16 14 12 10 8 8 7 5 5 7 8 9 10 12 13 12 12 12 12 12 10 9 10 8 8 9 10 11 10
29 28 27 26 25 24 23 23 23 22 21 20 17 15 13 11 10 8 8 7 7 6 5 5 5 6 7 7 8 9 10 10 11 13 14 13 10 8 6 7 8 8 9
28 28 27 26 25 25 25 24 22 20 19 17 14 12 11 10 8 7 8 8 7 5 3 3 3 4 5 6 7 9 10 11 10 11 12 14 10 8 7 6 6 7 7
28 26 26 26 25 24 25 23 21 19 17 15 13 11 9 9 9 8 8 7 7 6 5 4 4 4 4 5 6 7 8 11 10 10 10 10 10 8 10 8 7 7 7
28 27 26 26 25 24 23 22 20 18 16 15 13 11 9 8 9 8 9 10 9 8 7 7 6 6 6 5 5 6 7 10 11 11 9 11 10 7 8 8 8 6 6
26 27 25 24 23 23 21 21 19 18 16 15 13 11 10 9 9 9 9 10 10 10 10 9 9 8 7 7 7 6 6 9 10 10 7 12 11 9 9 8 8 9 7
24 25 24 23 23 22 21 20 20 18 16 15 13 11 11 10 9 10 10 11 11 11 11 10 10 9 8 8 9 8 7 7 8 11 12 13 15 14 12 10 10 9 9
24 23 24 22 21 21 20 19 19 17 16 15 13 12 12 10 10 10 10 11 12 11 10 9 8 8 9 9 9 9 8 9 9 8 8 10 11 15 13 12 12 11 12
25 23 23 23 21 20 19 19 18 17 16 15 14 13 12 10 10 9 9 9 10 9 8 7 7 6 6 8 9 10 11 12 10 11 12 11 10 13 17 15 14 14 14
26 24 23 22 21 20 19 18 17 16 16 14 13 13 12 10 10 9 8 8 8 9 9 8 6 7 7 8 10 9 12 13 12 10 13 12 12 12 13 15 18 18 16
22 23 23 23 21 20 20 18 17 16 15 14 13 13 12 12 12 11 9 8 8 9 9 7 6 6 6 7 8 11 12 12 11 8 9 11 12 12 12 12 14 19 17
20 20 21 21 21 20 19 18 17 17 15 15 14 14 14 14 13 11 10 9 8 9 9 8 7 5 6 8 8 8 8 10 10 10 10 10 11 13 13 13 14 16 17
19 19 19 19 19 19 19 18 18 17 16 14 15 16 19 17 15 13 12 11 10 6 8 9 8 9 8 7 11 12 12 11 12 11 11 11 13 13 14 14 14 15 17
21 19 18 19 17 17 16 17 14 15 13 13 13 16 16 19 16 16 16 13 11 11 11 11 10 10 9 9 10 9 13 16 15 15 15 15 16 16 14 12 13 14 15
20 20 20 20 18 17 15 18 17 16 18 16 14 14 14 15 18 18 20 18 16 15 16 18 18 17 16 15 13 14 13 14 19 18 19 17 18 17 17 13 13 14 14
22 22 21 21 22 20 19 19 20 19 19 21 19 18 18 18 17 20 22 22 18 18 20 20 19 19 20 19 16 15 17 18 17 16 19 18 19 17 20 19 15 16 16
23 22 23 23 23 22 22 22 23 23 23 22 22 21 18 21 21 21 23 23 20 19 19 20 22 23 23 22 19 19 20 21 21 20 21 22 20 21 20 20 21 19 21
26 26 26 25 25 24 26 25 25 27 27 27 27 26 23 22 22 24 24 24 24 23 22 21 23 26 26 26 25 24 22 24 26 25 24 24 23 21 22 22 21 22 21
31 30 30 28 27 26 28 30 30 30 29 29 33 31 28 26 26 26 26 25 24 24 23 24 25 26 28 29 30 32 30 26 25 22 21 25 24 22 22 22 23 24 25
30 30 29 31 30 28 26 27 27 25 24 21 22 25 27 29 29 29 29 27 25 25 26 27 29 30 30 28 32 31 32 33 32 29 27 26 27 26 26 25 25 27 29
29 28 28 26 27 28 26 27 29 30 29 28 27 24 25 27 29 32 33 32 30 30 31 27 26 28 31 31 28 28 19 23 25 25 26 28 30 32 32 33 32 31 30
30 28 28 25 25 24 28 31 31 30 32 30 29 26 26 25 26 27 28 30 34 38 38 32 27 27 27 31 30 32 32 34 29 27 28 29 28 29 28 30 31 32 34
31 31 28 28 27 26 28 30 32 34 34 33 33 32 31 29 27 27 28 30 30 31 35 35 34 32 32 33 36 38 38 36 34 33 34 34 34 38 35 35 33 33 32
31 35 34 33 30 31 33 34 35 34 34 35 35 36 35 33 30 29 30 33 34 32 33 32 32 33 32 33 34 38 37 38 34 33 35 38 39 40 39 38 35 34 32
Wind_Direction
165 156 158 158 150 150 151 149 147 146 142 142 142 143 144 142 135 125 117 113 112 108 100 98 110 123 130 136 144 150 149 143 133 137 135 130 115 117 105 101 112 106 107
156 157 159 159 153 154 154 150 149 150 148 150 149 149 152 155 153 150 144 140 134 125 117 113 114 123 139 149 156 163 167 162 157 154 147 141 141 134 114 109 109 113 111
158 156 163 160 160 160 156 152 151 150 154 152 148 150 154 161 163 170 168 165 157 146 133 127 134 138 143 149 156 164 168 167 164 160 158 161 156 138 120 119 114 115 118
161 161 164 162 163 166 160 153 149 149 150 155 156 160 164 174 180 188 191 192 181 166 156 148 152 157 162 178 180 177 171 165 166 164 158 162 161 143 132 129 116 118 121
163 162 163 162 165 166 164 157 157 158 160 161 167 171 170 173 181 180 193 196 192 179 176 178 180 186 193 192 201 195 188 180 180 174 172 168 172 171 161 146 136 136 139
164 165 165 166 168 168 167 165 167 171 172 173 176 184 193 202 206 207 200 191 195 202 207 232 259 255 252 219 202 203 204 197 195 185 186 192 185 187 182 166 162 159 151
167 169 171 173 173 175 175 177 179 182 183 181 189 198 203 211 212 211 218 222 220 221 232 244 253 248 257 235 229 211 204 208 202 202 210 206 200 186 189 185 178 179 177
172 173 176 178 180 184 184 186 191 193 196 201 204 212 215 219 216 222 226 232 234 236 238 245 247 242 244 238 220 213 206 200 210 204 216 197 200 203 208 211 209 196 189
179 180 181 183 186 190 193 197 204 206 208 211 214 221 223 231 231 233 234 239 242 242 241 242 239 233 242 235 233 232 216 207 206 205 217 221 233 232 220 220 230 218 203
186 189 190 190 192 195 197 203 208 211 213 216 218 224 231 233 234 233 231 232 234 235 235 235 224 225 232 234 233 239 243 233 218 222 229 231 230 215 214 224 229 233 218
190 192 194 197 199 200 202 207 210 214 218 221 223 227 231 229 226 221 224 217 210 206 209 215 224 221 226 232 231 235 245 252 233 239 246 234 233 225 232 240 239 233 230
193 194 197 201 204 205 207 208 213 215 219 223 226 229 228 221 218 213 210 206 206 206 203 201 221 236 236 240 231 233 245 248 251 235 227 227 227 238 237 242 239 232 230
191 197 201 205 208 209 211 211 214 217 221 221 223 220 218 216 210 206 205 203 204 205 208 221 230 259 249 256 257 254 248 245 238 222 207 221 231 237 247 248 240 229 228
192 197 204 209 212 214 215 216 219 222 224 221 220 215 210 204 204 205 211 213 219 225 227 232 255 259 265 258 255 256 254 234 232 229 222 220 228 235 245 244 236 231 231
204 203 207 211 216 217 217 218 222 224 230 225 220 214 210 209 216 217 215 216 223 237 244 244 244 255 258 259 257 255 248 240 244 244 242 243 242 248 240 237 235 235 235
214 215 216 212 214 218 216 212 215 212 206 209 209 210 217 221 223 219 210 217 217 233 248 258 257 258 259 254 256 261 252 249 249 250 262 256 255 251 244 241 240 242 243
219 220 219 213 210 209 206 206 209 209 209 208 207 211 220 227 229 228 228 231 232 231 241 243 253 261 265 263 263 263 262 254 254 256 263 264 251 250 249 249 243 241 246
224 226 225 219 217 216 213 209 212 212 212 216 220 226 233 237 238 235 234 235 238 244 244 246 250 256 261 267 267 263 264 261 259 260 260 264 256 258 251 247 247 252 244
232 230 231 228 226 225 224 223 222 222 224 225 228 232 239 242 241 241 239 241 242 247 252 255 255 263 268 266 272 267 261 269 270 269 265 259 259 254 252 253 252 258 246
241 243 240 238 236 234 232 231 231 234 236 237 237 239 238 237 242 244 242 243 246 252 256 259 261 266 268 268 270 270 269 265 269 272 267 258 257 255 251 252 252 251 250
242 245 245 241 239 238 236 236 237 242 244 245 242 242 242 243 246 249 250 247 246 249 253 261 267 270 269 266 269 272 274 274 274 266 263 255 251 254 258 254 251 249 247
245 245 246 243 241 241 241 242 243 247 251 255 258 256 254 254 259 259 260 260 254 250 252 260 267 271 276 271 267 271 275 276 269 268 261 259 258 259 260 260 256 255 254
237 239 238 242 246 246 248 248 248 251 255 255 254 256 257 260 261 260 263 266 263 255 254 256 262 265 270 275 272 260 264 265 277 271 262 263 262 261 263 262 261 263 261
241 241 241 244 243 246 248 249 250 253 254 255 256 258 260 259 260 259 259 259 263 265 264 259 259 262 262 263 270 271 266 266 266 277 268 264 260 257 260 259 260 263 266
243 243 245 247 245 244 247 253 255 257 260 263 263 263 261 262 262 260 260 257 251 257 265 269 269 268 267 269 268 272 273 273 270 267 273 269 267 265 261 257 257 264 265
250 248 248 249 251 250 251 251 253 258 260 264 267 267 266 266 267 267 264 266 270 269 271 272 274 272 268 265 264 268 271 268 270 271 271 277 274 270 271 269 264 260 258